Springfield, MO

3:20 AM CDT on March 24, 2017 (GMT -0500)
Springfield-Branson Regional

Weather History for KSGF - August, 2013

Change the Weather History Date:

Monday, August 12, 2013

  Actual Average Record
Temperature  
Mean Temperature 76 °F 79 °F  
Max Temperature 82 °F 90 °F 104 °F (1999)
Min Temperature 69 °F 67 °F 44 °F (1967)
Degree Days  
Heating Degree Days 0 0  
Month to date heating degree days 0 0  
Since 1 June heating degree days 14 9  
Since 1 July heating degree days 0 0  
Cooling Degree Days 11 14  
Month to date cooling degree days 143 168  
Year to date cooling degree days 927 956  
Since 1 June cooling degree days 800 841  
Growing Degree Days 25 (Base 50)    
Moisture  
Dew Point 71 °F    
Average Humidity 84    
Maximum Humidity 100    
Minimum Humidity 67    
Precipitation  
Precipitation 0.77 in 0.12 in 1.82 in (1935)
Month to date precipitation 5.84 1.25  
Year to date precipitation 38.15 27.81  
Snow  
Snow 0.00 in - - ()
Month to date snowfall 0.0  
Since 1 June snowfall 0.0  
Since 1 July snowfall 0.0  
Snow Depth 0.00 in    
Sea Level Pressure  
Sea Level Pressure 30.02 in    
Wind  
Wind Speed 5 mph (SSW)    
Max Wind Speed 17 mph    
Max Gust Speed 25 mph    
Visibility 6 miles    
Events Fog , Rain , Thunderstorm    
T = Trace of Precipitation, MM = Missing Value Source: NWS Daily Summary

Daily Weather History Graph

Daily Weather History Graph

Search for Another Location

Airport or City:

Trip Planner

Search our weather history database for the weather conditions in past years. The results will help you decide how hot, cold, wet, or windy it might be!

Date:

Astronomy

Aug. 12, 2013 Rise Set
Actual Time 6:27 AM CDT 8:08 PM CDT
Civil Twilight 5:59 AM CDT 8:36 PM CDT
Nautical Twilight 5:25 AM CDT 9:10 PM CDT
Astronomical Twilight 4:50 AM CDT 9:45 PM CDT
Moon 12:09 PM CDT (8/12) 11:11 PM CDT (8/12)
Length of Visible Light 14h 36m
Length of Day
13h 41m
Waxing Crescent, 31% of the Moon is Illuminated
Aug 12
Waxing Crescent
Aug 14
First Quarter
Aug 20
Full
Aug 28
Last Quarter
Sep 5
New

Hourly Weather History & Observations

Time (CDT) Temp. Heat Index Dew Point Humidity Pressure Visibility Wind Dir Wind Speed Gust Speed Precip Events Conditions
12:52 AM 73.9 °F - 71.1 °F 91% 30.04 in 9.0 mi SSE 6.9 mph - N/A   Clear
1:52 AM 73.0 °F - 71.1 °F 93% 30.02 in 8.0 mi SSE 3.5 mph - N/A   Clear
2:52 AM 73.0 °F - 71.1 °F 93% 30.01 in 7.0 mi SSE 5.8 mph - N/A   Clear
3:35 AM 73.0 °F - 71.1 °F 93% 30.05 in 6.0 mi SSE 9.2 mph - N/A   Scattered Clouds
3:44 AM 73.0 °F - 72.0 °F 96% 30.04 in 3.0 mi SSE 8.1 mph - N/A   Mostly Cloudy
3:52 AM 73.0 °F - 72.0 °F 96% 30.00 in 2.0 mi SSE 9.2 mph - N/A   Mostly Cloudy
3:59 AM 73.0 °F - 72.0 °F 96% 30.04 in 1.2 mi SSE 8.1 mph - N/A   Overcast
4:12 AM 73.0 °F - 72.0 °F 96% 30.04 in 0.5 mi SSE 8.1 mph - N/A Fog Fog
4:52 AM 73.0 °F - 72.0 °F 96% 30.00 in 1.0 mi SSE 6.9 mph - N/A   Overcast
5:32 AM 73.0 °F - 72.0 °F 96% 30.04 in 0.5 mi South 5.8 mph - N/A Fog Fog
5:52 AM 73.0 °F - 72.0 °F 96% 30.00 in 0.5 mi South 4.6 mph - N/A Fog Fog
6:28 AM 73.0 °F - 72.0 °F 96% 30.03 in 1.5 mi South 4.6 mph - N/A   Overcast
6:52 AM 73.0 °F - 72.0 °F 96% 29.98 in 1.8 mi South 5.8 mph - N/A   Overcast
6:59 AM 73.0 °F - 72.0 °F 96% 30.02 in 2.5 mi South 5.8 mph - N/A   Overcast
7:27 AM 73.0 °F - 72.0 °F 96% 30.03 in 1.0 mi South 6.9 mph - N/A   Overcast
7:46 AM 73.4 °F - 71.6 °F 94% 30.04 in 3.0 mi South 6.9 mph - N/A   Overcast
7:52 AM 73.0 °F - 72.0 °F 96% 30.00 in 4.0 mi South 6.9 mph - N/A   Mostly Cloudy
8:47 AM 73.4 °F - 73.4 °F 100% 30.05 in 6.0 mi South 5.8 mph - N/A   Mostly Cloudy
8:52 AM 73.9 °F - 73.0 °F 97% 30.02 in 7.0 mi South 5.8 mph - N/A   Mostly Cloudy
9:52 AM 78.1 °F - 73.0 °F 84% 30.01 in 10.0 mi SSW 4.6 mph - N/A   Mostly Cloudy
10:12 AM 77.0 °F - 72.0 °F 84% 30.04 in 10.0 mi SW 5.8 mph - N/A Thunderstorm Mostly Cloudy
10:22 AM 77.0 °F - 72.0 °F 84% 30.05 in 10.0 mi SW 5.8 mph - N/A Thunderstorm Thunderstorm
10:33 AM 73.0 °F - 70.0 °F 90% 30.08 in 1.2 mi North - - 0.01 in Rain , Thunderstorm Light Thunderstorms and Rain
10:37 AM 70.0 °F - 68.0 °F 93% 30.07 in 0.2 mi NW 8.1 mph - 0.18 in Fog , Rain , Thunderstorm Heavy Thunderstorms and Rain
10:47 AM 69.8 °F - 68.0 °F 94% 30.07 in 0.5 mi NW 8.1 mph - 0.74 in Fog , Rain , Thunderstorm Light Thunderstorms and Rain
10:52 AM 70.0 °F - 68.0 °F 93% 30.04 in 4.0 mi WSW 6.9 mph - 0.74 in Rain , Thunderstorm Light Thunderstorms and Rain
11:11 AM 71.1 °F - 68.0 °F 90% 30.08 in 10.0 mi WNW 4.6 mph - 0.00 in Thunderstorm Overcast
11:29 AM 72.0 °F - 69.1 °F 91% 30.08 in 10.0 mi West 5.8 mph - 0.00 in   Overcast
11:52 AM 73.0 °F - 69.1 °F 87% 30.05 in 10.0 mi West 5.8 mph - 0.00 in   Overcast
12:52 PM 73.0 °F - 71.1 °F 93% 30.04 in 9.0 mi West 8.1 mph - 0.00 in Rain Light Rain
1:52 PM 73.0 °F - 70.0 °F 90% 30.01 in 10.0 mi SW 4.6 mph - 0.03 in Rain Light Rain
2:52 PM 75.9 °F - 68.0 °F 76% 29.99 in 10.0 mi WNW 6.9 mph - 0.00 in   Clear
3:52 PM 79.0 °F - 68.0 °F 69% 29.98 in 10.0 mi Variable 5.8 mph - N/A   Clear
4:52 PM 81.0 °F 84.1 °F 69.1 °F 67% 29.96 in 10.0 mi NNW 5.8 mph - N/A   Mostly Cloudy
5:52 PM 81.0 °F 83.8 °F 68.0 °F 65% 29.95 in 10.0 mi NNW 8.1 mph - N/A   Clear
6:52 PM 81.0 °F 83.8 °F 68.0 °F 65% 29.96 in 10.0 mi West 3.5 mph - N/A   Partly Cloudy
7:52 PM 78.1 °F - 69.1 °F 74% 29.96 in 10.0 mi NW 3.5 mph - N/A   Partly Cloudy
8:52 PM 73.9 °F - 69.1 °F 85% 29.97 in 10.0 mi Calm Calm - N/A   Clear
9:52 PM 72.0 °F - 69.1 °F 91% 30.00 in 10.0 mi Calm Calm - N/A   Clear
10:52 PM 71.1 °F - 68.0 °F 90% 30.01 in 10.0 mi Calm Calm - N/A   Clear
11:52 PM 72.0 °F - 68.0 °F 87% 29.99 in 10.0 mi NNE 3.5 mph - N/A   Clear